Regional Weather Roundup
Issued by NWS

Home | Current Version | Previous Version | Text Only | Print | Product List | Glossary Off
Versions: 1 2 3 4 5 6 7 8 9 10 11 12 13 14 15 16 17 18 19 20 21 22 23 24 25 26 27 28 29 30 31 32 33 34 35 36 37 38 39 40 41 42 43 44 45 46 47 48 49 50

000
ASUS43 KLMK 252002
RWRKY
KENTUCKY REGIONAL WEATHER ROUNDUP
NATIONAL WEATHER SERVICE LOUISVILLE KY
400 PM EDT SAT MAR 25 2017

NOTE "FAIR" INDICATES FEW OR NO CLOUDS BELOW 12,000 FEET
WITH NO SIGNIFICANT WEATHER AND/OR OBSTRUCTIONS TO VISIBILITY.

KYZ001>023-026-027-061>063-070>075-252100-
WESTERN AND SOUTH CENTRAL KENTUCKY

CITY           SKY/WX    TMP DP  RH WIND       PRES   REMARKS
PADUCAH        CLOUDY    65  56  72 S16G26    29.91F
HENDERSON      CLOUDY    70  52  52 S14G24    29.93F
OWENSBORO      CLOUDY    70  53  54 SW14G21   29.96F
HOPKINSVILLE   CLOUDY    70  52  53 S20G29    29.98R
BOWLING GREEN  CLOUDY    75  53  46 S20G30    30.00F
GLASGOW        NOT AVBL
$$

KYZ024-025-028>034-038-045-046-053-252100-
NORTH CENTRAL KENTUCKY

CITY           SKY/WX    TMP DP  RH WIND       PRES   REMARKS
LOUISVILLE/SDF CLOUDY    78  47  33 S20       30.00F
LOUISVILLE/LOU PTSUNNY   78  49  35 S17G28    30.00F
FORT KNOX      PTSUNNY   74  51  44 S20G30    29.99F
$$

KYZ035>037-039>044-047>052-055>060-089>105-252100-
NORTHEAST KENTUCKY

CITY           SKY/WX    TMP DP  RH WIND       PRES   REMARKS
LEXINGTON      CLOUDY    76  49  38 S16       30.06F
COVINGTON      CLOUDY    76  52  43 SE16      30.04F
FRANKFORT      CLOUDY    78  47  33 S15       30.03F
$$

KYZ054-064>069-076>088-106>120-252100-
SOUTHEAST KENTUCKY

CITY           SKY/WX    TMP DP  RH WIND       PRES   REMARKS
JACKSON        PTSUNNY   76  48  37 SW5       30.10F
LONDON         CLOUDY    74  47  38 S10       30.09F
SOMERSET       NOT AVBL
MIDDLESBORO    MOSUNNY   74  50  43 S3        30.12F
MONTICELLO     CLOUDY    74  52  46 S8        30.08F
$$





USA.gov is the U.S. government's official web portal to all federal, state and local government web resources and services.